COSMOS 1691 DEB, 43318

Orbit data source: Space-Track

COSMOS 1691 DEB, 43318 is space debris in LEO originally from a launch on Wed, 09 Oct 1985 UTC launched from the Plesetsk Missile And Space Complex (PKMTR). Debris objects in space refer to the collection of defunct objects orbiting the Earth. Examples of debris include non-operational satellites, rocket bodies, and fragments generated from explosions, collisions, or faulty payload assembly.

Loading next visibility...
COSMOS 1691 DEB details
Identifier
43318, 1985-094AC
Orbit
LEO
Last TLE update8 months ago
Origin
Flag of CISRVSN (CIS)
ManufacturerUnknown
MissionSpacecraft
Bus & MotorUnknown
MassUnknown
Launch date (UTC)
1985-10-09 (39 years ago)
Launch vehicleUnknown
Launch site
Plesetsk Missile And Space Complex (PKMTR)
Object type
Payload
Rocket body
Debris
Shape & HBRUnknown
Radar Cross SectionSmall (<0.1 m²)

Expand to show TLE details & history

TLE from 8 months ago
0 COSMOS 1691 DEB
1 43318U 85094AC  24127.44030301  .00001074  00000-0  45894-2 0  9990
2 43318  82.5844 189.0068 0035168 166.8249 193.3780 12.81161065445772
Epoch: 2024-05-06T10:34Z
Definitive object data (Epoch: 2024-05-06T10:34:02.18Z)
Latitude0.00003°
Longitude165.71954°
Altitude1,365.968 km
Speed7.163 km/s
True Right ascension12h 36m 01s
True Declination0° 00' 00"
Sunlit
Object was in full shadow at TLE epoch
Visualization TLE readout
Latitude-64.62303°
Longitude-4.89641°
Altitude1,339.469 km
Speed7.197 km/s
Apparent Right ascension06h 11m 07s
Apparent Declination-67° 18' 47"
Sunlit
Object is in daylight
Visualization observer readout
Local Sidereal Time20:53:49
Azimuth154.197° SSE
Elevation-54.723°
Doppler factor1
Orbital elements
Apogee altitude1,361.222 km
Perigee altitude1,306.977 km
Semi-major axis7,712.236 km
Eccentricity0.0035168
Inclination82.5844°
RAAN189.0068°
Arg. of periapsis166.8249°
True anomaly193.28515°
Mean anomaly193.378°
Eccentric anomaly193.33154°
Mean motion3.20459 °/min
BSTAR0.0045894
Orbital period112.34 mins
Loading maneuver chart data...
Loading historical data...
Loading historical data...
Loading historical data...
Loading historical data...
Loading historical data...
Loading historical data...
Loading historical data...

COSMOS 1691 DEB Visibility forecast

Observer location: undefined°, undefined

Span
Click to sort rows by Start time (UTC) header in descending order
Start Az.
Max El. time (UTC)
Max El. Az.
Max El.
End time (UTC)
End Az.
11 mins2024-12-27 01:42:49.728Z129.91° SE2024-12-27 01:48:49.728Z79.139° E21.747°2024-12-27 01:53:49.728Z36.66° NE
14 mins2024-12-27 03:34:49.728Z201.46° SSW2024-12-27 03:40:49.728Z268.954° W42.099°2024-12-27 03:48:49.728Z1.84° NNE
13 mins2024-12-27 13:27:49.728Z11.615° NNE2024-12-27 13:33:49.728Z81.579° E34.899°2024-12-27 13:40:49.728Z145.042° SSE
12 mins2024-12-27 15:20:49.728Z330.676° NNW2024-12-27 15:26:49.728Z269.622° W30.799°2024-12-27 15:32:49.728Z214.346° SW
|